Location: Flotzheim
(48.8375°N, 10.8136°E)
Time: 17:12:37
(UTC+00:00)

Cosmos 1300 - Pass Details

Date: 23 January 2021
Orbit: 511 x 513 km, 82.5° (Epoch: 28 February)

Event Time Altitude Azimuth Distance (km) Brightness Sun altitude
Rises 16:35:26 0° 348° (NNW) 2,642 6.2 -6.1°
Reaches altitude 10° 16:37:35 10° 346° (NNW) 1,750 5.3 -6.4°
Maximum altitude 16:41:24 69° 263° (W) 554 3.1 -7.0°
Drops below altitude 10° 16:45:11 10° 180° (S) 1,733 5.7 -7.5°
Sets 16:47:18 0° 178° (S) 2,614 6.5 -7.9°
